,,,PA_Meas_PMT16A,,PR_Meas_QMR101_102,,RH_Meas_QMH101,,SR_Meas_QMS101,,TA_Meas_QMH101,,GenWind,,GenWind,
date,time,status,PA,status,PR,status,RH,status,SR,status,TA,status,DirAvg,status,SpdAvg,
2008-09-01, 00:00:04,VALID,1010.85,VALID,0,VALID,94.2848,VALID,0,VALID,23.4017,VALID,70,VALID,0.196484,
2008-09-01, 00:01:04,VALID,1010.85,VALID,0,VALID,94.2772,VALID,0,VALID,23.3823,VALID,70,VALID,0.0199219,
2008-09-01, 00:02:04,VALID,1010.83,VALID,0,VALID,94.2848,VALID,0,VALID,23.3823,VALID,70,VALID,0.0964844,
2008-09-01, 00:03:04,VALID,1010.8,VALID,0,VALID,94.3077,VALID,0,VALID,23.4017,VALID,70,VALID,0.379687,
2008-09-01, 00:04:04,VALID,1010.8,VALID,0,VALID,94.3077,VALID,0,VALID,23.4212,VALID,68,VALID,0.454297,
2008-09-01, 00:05:04,VALID,1010.8,VALID,0,VALID,94.2848,VALID,0,VALID,23.4407,VALID,67,VALID,0.451172,
2008-09-01, 00:06:04,VALID,1010.82,VALID,0,VALID,94.2009,VALID,0,VALID,23.4212,VALID,63,VALID,0.467578,
2008-09-01, 00:07:04,VALID,1010.81,VALID,0,VALID,94.1552,VALID,0,VALID,23.4407,VALID,63,VALID,0.585938,
2008-09-01, 00:08:04,VALID,1010.81,VALID,0,VALID,94.0942,VALID,0,VALID,23.4602,VALID,71,VALID,0.594531,
2008-09-01, 00:09:04,VALID,1010.82,VALID,0,VALID,94.056,VALID,0,VALID,23.4407,VALID,71,VALID,0.727734,
2008-09-01, 00:10:04,VALID,1010.82,VALID,0,VALID,94.0332,VALID,0,VALID,23.4407,VALID,74,VALID,0.541406,
2008-09-01, 00:11:04,VALID,1010.83,VALID,0,VALID,94.0103,VALID,0,VALID,23.4602,VALID,77,VALID,0.675391,
2008-09-01, 00:12:04,VALID,1010.85,VALID,0,VALID,94.0027,VALID,0,VALID,23.4602,VALID,86,VALID,0.753906,
2008-09-01, 00:13:04,VALID,1010.85,VALID,0,VALID,94.0255,VALID,0,VALID,23.4407,VALID,95,VALID,0.648828,
2008-09-01, 00:14:04,VALID,1010.83,VALID,0,VALID,94.0408,VALID,0,VALID,23.4602,VALID,89,VALID,0.479688,
2008-09-01, 00:15:04,VALID,1010.84,VALID,0,VALID,93.9645,VALID,0,VALID,23.4407,VALID,95,VALID,0.813281,
2008-09-01, 00:16:04,VALID,1010.82,VALID,0,VALID,93.995,VALID,0,VALID,23.5009,VALID,105,VALID,0.821094,
2008-09-01, 00:17:04,VALID,1010.8,VALID,0,VALID,93.9493,VALID,0,VALID,23.4815,VALID,96,VALID,0.463672,
2008-09-01, 00:18:04,VALID,1010.76,VALID,0,VALID,93.9798,VALID,0,VALID,23.4407,VALID,90,VALID,0.417578,
2008-09-01, 00:19:04,VALID,1010.75,VALID,0,VALID,93.9645,VALID,0,VALID,23.4602,VALID,84,VALID,0.475391,
2008-09-01, 00:20:04,VALID,1010.7,VALID,0,VALID,93.934,VALID,0,VALID,23.4815,VALID,60,VALID,0.376172,
2008-09-01, 00:21:04,VALID,1010.68,VALID,0,VALID,93.8807,VALID,0,VALID,23.4602,VALID,60,VALID,0.278516,
2008-09-01, 00:22:04,VALID,1010.65,VALID,0,VALID,93.8883,VALID,0,VALID,23.4407,VALID,60,VALID,0.134375,
2008-09-01, 00:23:04,VALID,1010.65,VALID,0,VALID,93.8654,VALID,0,VALID,23.4425,VALID,34,VALID,0.278125,
2008-09-01, 00:24:04,VALID,1010.62,VALID,0,VALID,93.8044,VALID,0,VALID,23.4212,VALID,34,VALID,0,
2008-09-01, 00:25:04,VALID,1010.58,VALID,0,VALID,93.8044,VALID,0,VALID,23.4212,VALID,34,VALID,0.202734,
2008-09-01, 00:26:04,VALID,1010.6,VALID,0,VALID,93.9112,VALID,0.105969,VALID,23.4212,VALID,34,VALID,0.363281,
2008-09-01, 00:27:04,VALID,1010.57,VALID,0,VALID,93.9417,VALID,0,VALID,23.4017,VALID,34,VALID,0.191797,
2008-09-01, 00:28:04,VALID,1010.55,VALID,0,VALID,93.9874,VALID,0,VALID,23.4017,VALID,34,VALID,0.0433594,
2008-09-01, 00:29:04,VALID,1010.52,VALID,0,VALID,94.056,VALID,0,VALID,23.423,VALID,34,VALID,0.200391,
2008-09-01, 00:30:04,VALID,1010.51,VALID,0,VALID,94.0942,VALID,0,VALID,23.4017,VALID,34,VALID,0.235547,
2008-09-01, 00:31:04,VALID,1010.49,VALID,0,VALID,94.1781,VALID,0.105969,VALID,23.4,VALID,27,VALID,0.273047,
2008-09-01, 00:32:04,VALID,1010.47,VALID,0,VALID,94.2086,VALID,0.105969,VALID,23.4,VALID,9,VALID,0.090625,
2008-09-01, 00:33:04,VALID,1010.46,VALID,0,VALID,94.2619,VALID,0.105969,VALID,23.4,VALID,9,VALID,0,
2008-09-01, 00:34:04,VALID,1010.45,VALID,0,VALID,94.3458,VALID,0.105969,VALID,23.4,VALID,9,VALID,0,
2008-09-01, 00:35:04,VALID,1010.42,VALID,0,VALID,94.4373,VALID,0.105969,VALID,23.4,VALID,9,VALID,0,
2008-09-01, 00:36:04,VALID,1010.43,VALID,0,VALID,94.4373,VALID,0.105969,VALID,23.3805,VALID,9,VALID,0,
2008-09-01, 00:37:04,VALID,1010.42,VALID,0,VALID,94.4602,VALID,0.105969,VALID,23.361,VALID,9,VALID,0,
2008-09-01, 00:38:04,VALID,1010.38,VALID,0,VALID,94.4526,VALID,0.105969,VALID,23.361,VALID,9,VALID,0.000390625,
2008-09-01, 00:39:04,VALID,1010.38,VALID,0,VALID,94.4983,VALID,0.105969,VALID,23.3203,VALID,9,VALID,0.0714844,
2008-09-01, 00:40:04,VALID,1010.37,VALID,0,VALID,94.5136,VALID,0.105969,VALID,23.361,VALID,9,VALID,0,
2008-09-01, 00:41:04,VALID,1010.39,VALID,0,VALID,94.567,VALID,0.105969,VALID,23.361,VALID,9,VALID,0.0972656,
2008-09-01, 00:42:04,VALID,1010.4,VALID,0,VALID,94.5898,VALID,0.105969,VALID,23.3592,VALID,9,VALID,0.124219,
2008-09-01, 00:43:04,VALID,1010.4,VALID,0,VALID,94.6203,VALID,0.105969,VALID,23.3415,VALID,9,VALID,0.232422,
2008-09-01, 00:44:04,VALID,1010.39,VALID,0,VALID,94.6356,VALID,0.105969,VALID,23.322,VALID,90,VALID,0.569141,
2008-09-01, 00:45:04,VALID,1010.38,VALID,0,VALID,94.6356,VALID,0.105969,VALID,23.322,VALID,90,VALID,0.219922,
2008-09-01, 00:46:04,VALID,1010.38,VALID,0,VALID,94.6661,VALID,0,VALID,23.3238,VALID,90,VALID,0.0375,
2008-09-01, 00:47:04,VALID,1010.36,VALID,0,VALID,94.689,VALID,0,VALID,23.3433,VALID,90,VALID,0.126172,
2008-09-01, 00:48:04,VALID,1010.35,VALID,0,VALID,94.7042,VALID,0,VALID,23.2831,VALID,90,VALID,0,
2008-09-01, 00:49:04,VALID,1010.33,VALID,0,VALID,94.6966,VALID,0,VALID,23.322,VALID,90,VALID,0.00429688,
2008-09-01, 00:50:04,VALID,1010.3,VALID,0,VALID,94.6966,VALID,0,VALID,23.3238,VALID,90,VALID,0.172266,
2008-09-01, 00:51:04,VALID,1010.31,VALID,0,VALID,94.6814,VALID,0,VALID,23.3026,VALID,90,VALID,0.03125,
2008-09-01, 00:52:04,VALID,1010.28,VALID,0,VALID,94.7042,VALID,0,VALID,23.3238,VALID,90,VALID,0.120312,
2008-09-01, 00:53:04,VALID,1010.28,VALID,0,VALID,94.7042,VALID,0,VALID,23.3043,VALID,90,VALID,0.00507812,
2008-09-01, 00:54:04,VALID,1010.26,VALID,0,VALID,94.7195,VALID,0,VALID,23.2831,VALID,90,VALID,0.266406,
2008-09-01, 00:55:04,VALID,1010.25,VALID,0,VALID,94.7119,VALID,0,VALID,23.3026,VALID,90,VALID,0.126563,
2008-09-01, 00:56:04,VALID,1010.22,VALID,0,VALID,94.7195,VALID,0,VALID,23.2831,VALID,90,VALID,0,
2008-09-01, 00:57:04,VALID,1010.21,VALID,0,VALID,94.7195,VALID,0,VALID,23.2848,VALID,90,VALID,0,
2008-09-01, 00:58:04,VALID,1010.19,VALID,0,VALID,94.7576,VALID,0,VALID,23.2831,VALID,90,VALID,0,
2008-09-01, 00:59:04,VALID,1010.19,VALID,0,VALID,94.7347,VALID,0.105969,VALID,23.2636,VALID,90,VALID,0,
2008-09-01, 01:00:04,VALID,1010.19,VALID,0,VALID,94.75,VALID,0,VALID,23.3043,VALID,90,VALID,0.232422,
2008-09-01, 01:01:04,VALID,1010.19,VALID,0,VALID,94.7805,VALID,0,VALID,23.2831,VALID,90,VALID,0.271094,
2008-09-01, 01:02:04,VALID,1010.18,VALID,0,VALID,94.7957,VALID,0,VALID,23.3238,VALID,90,VALID,0.298047,
2008-09-01, 01:03:04,VALID,1010.16,VALID,0,VALID,94.7805,VALID,0,VALID,23.3238,VALID,90,VALID,0.185156,
2008-09-01, 01:04:04,VALID,1010.18,VALID,0,VALID,94.8186,VALID,0,VALID,23.2848,VALID,90,VALID,0.288281,
2008-09-01, 01:05:04,VALID,1010.17,VALID,0,VALID,94.8186,VALID,0,VALID,23.3433,VALID,90,VALID,0.333984,
2008-09-01, 01:06:04,VALID,1010.15,VALID,0,VALID,94.8491,VALID,0,VALID,23.322,VALID,90,VALID,0.557813,
2008-09-01, 01:07:04,VALID,1010.15,VALID,0,VALID,94.8339,VALID,0,VALID,23.322,VALID,89,VALID,0.595703,
2008-09-01, 01:08:04,VALID,1010.15,VALID,0,VALID,94.7957,VALID,0,VALID,23.3823,VALID,89,VALID,0.609375,
2008-09-01, 01:09:04,VALID,1010.12,VALID,0,VALID,94.7424,VALID,0,VALID,23.3823,VALID,90,VALID,0.787891,
2008-09-01, 01:10:04,VALID,1010.13,VALID,0,VALID,94.6966,VALID,0,VALID,23.361,VALID,90,VALID,0.430469,
2008-09-01, 01:11:04,VALID,1010.13,VALID,0,VALID,94.6814,VALID,0,VALID,23.3805,VALID,90,VALID,0.186719,
2008-09-01, 01:12:04,VALID,1010.13,VALID,0,VALID,94.6661,VALID,0,VALID,23.4212,VALID,126,VALID,0.269531,
2008-09-01, 01:13:04,VALID,1010.11,VALID,0,VALID,94.628,VALID,0,VALID,23.4017,VALID,126,VALID,0.129297,
2008-09-01, 01:14:04,VALID,1010.1,VALID,0,VALID,94.5898,VALID,0,VALID,23.3805,VALID,126,VALID,0.171094,
2008-09-01, 01:15:04,VALID,1010.11,VALID,0,VALID,94.5593,VALID,0,VALID,23.4,VALID,123,VALID,0.232031,
2008-09-01, 01:16:04,VALID,1010.12,VALID,0,VALID,94.5212,VALID,0,VALID,23.3823,VALID,78,VALID,0.358984,
2008-09-01, 01:17:04,VALID,1010.12,VALID,0,VALID,94.4983,VALID,0,VALID,23.3823,VALID,41,VALID,0.435547,
2008-09-01, 01:18:04,VALID,1010.1,VALID,0,VALID,94.4907,VALID,0,VALID,23.3805,VALID,41,VALID,0.364844,
2008-09-01, 01:19:04,VALID,1010.12,VALID,0,VALID,94.4602,VALID,0,VALID,23.3433,VALID,41,VALID,0.313281,
2008-09-01, 01:20:04,VALID,1010.12,VALID,0,VALID,94.4297,VALID,0,VALID,23.3628,VALID,41,VALID,0.289453,
2008-09-01, 01:21:04,VALID,1010.09,VALID,0,VALID,94.4221,VALID,0,VALID,23.3628,VALID,41,VALID,0.225781,
2008-09-01, 01:22:04,VALID,1010.07,VALID,0,VALID,94.4526,VALID,0,VALID,23.3628,VALID,41,VALID,0.191406,
2008-09-01, 01:23:04,VALID,1010.03,VALID,0,VALID,94.4831,VALID,0,VALID,23.3433,VALID,41,VALID,0.141797,
2008-09-01, 01:24:04,VALID,1009.98,VALID,0,VALID,94.5365,VALID,0,VALID,23.3415,VALID,41,VALID,0.084375,
2008-09-01, 01:25:04,VALID,1009.96,VALID,0,VALID,94.5822,VALID,0,VALID,23.3415,VALID,41,VALID,0.324219,
2008-09-01, 01:26:04,VALID,1009.95,VALID,0,VALID,94.6356,VALID,0,VALID,23.2848,VALID,41,VALID,0.489844,
2008-09-01, 01:27:04,VALID,1009.97,VALID,0,VALID,94.6585,VALID,0,VALID,23.3415,VALID,42,VALID,0.328906,
2008-09-01, 01:28:04,VALID,1009.93,VALID,0,VALID,94.6737,VALID,0,VALID,23.3628,VALID,75,VALID,0.489453,
2008-09-01, 01:29:04,VALID,1009.93,VALID,0,VALID,94.7271,VALID,0,VALID,23.3628,VALID,107,VALID,0.694531,
2008-09-01, 01:30:04,VALID,1009.92,VALID,0,VALID,94.7042,VALID,0,VALID,23.3628,VALID,104,VALID,0.844922,
2008-09-01, 01:31:04,VALID,1009.89,VALID,0,VALID,94.7424,VALID,0,VALID,23.3823,VALID,119,VALID,0.646484,
2008-09-01, 01:32:04,VALID,1009.87,VALID,0,VALID,94.6966,VALID,0,VALID,23.3628,VALID,139,VALID,1.05664,
2008-09-01, 01:33:04,VALID,1009.85,VALID,0,VALID,94.6661,VALID,0,VALID,23.361,VALID,149,VALID,1.13711,
2008-09-01, 01:34:04,VALID,1009.85,VALID,0,VALID,94.6432,VALID,0,VALID,23.3238,VALID,144,VALID,1.38906,
2008-09-01, 01:35:04,VALID,1009.84,VALID,0,VALID,94.6432,VALID,0,VALID,23.3043,VALID,145,VALID,1.20664,
2008-09-01, 01:36:04,VALID,1009.81,VALID,0,VALID,94.6737,VALID,0,VALID,23.2831,VALID,168,VALID,1.49531,
2008-09-01, 01:37:04,VALID,1009.8,VALID,0,VALID,94.75,VALID,0,VALID,23.2848,VALID,169,VALID,1.5707,
2008-09-01, 01:38:04,VALID,1009.76,VALID,0,VALID,94.75,VALID,0,VALID,23.2654,VALID,145,VALID,1.16367,
2008-09-01, 01:39:04,VALID,1009.76,VALID,0,VALID,94.8186,VALID,0,VALID,23.2459,VALID,173,VALID,1.22617,
2008-09-01, 01:40:04,VALID,1009.73,VALID,0,VALID,94.8644,VALID,0,VALID,23.2459,VALID,155,VALID,1.04219,
2008-09-01, 01:41:04,VALID,1009.75,VALID,0,VALID,94.9025,VALID,0,VALID,23.2264,VALID,142,VALID,0.961328,
2008-09-01, 01:42:04,VALID,1009.73,VALID,0,VALID,94.9483,VALID,0,VALID,23.2264,VALID,179,VALID,0.997656,
2008-09-01, 01:43:04,VALID,1009.72,VALID,0,VALID,94.9711,VALID,0,VALID,23.2264,VALID,167,VALID,0.830469,
2008-09-01, 01:44:04,VALID,1009.71,VALID,0,VALID,95.0093,VALID,0,VALID,23.2459,VALID,151,VALID,0.686719,
2008-09-01, 01:45:04,VALID,1009.71,VALID,0,VALID,95.055,VALID,0,VALID,23.2459,VALID,142,VALID,0.458203,
2008-09-01, 01:46:04,VALID,1009.71,VALID,0,VALID,95.0855,VALID,0,VALID,23.2848,VALID,151,VALID,0.737109,
2008-09-01, 01:47:04,VALID,1009.69,VALID,0,VALID,95.116,VALID,0,VALID,23.2848,VALID,139,VALID,0.901953,
2008-09-01, 01:48:04,VALID,1009.7,VALID,0,VALID,95.116,VALID,0,VALID,23.2848,VALID,118,VALID,1.02578,
2008-09-01, 01:49:04,VALID,1009.69,VALID,0,VALID,95.177,VALID,0,VALID,23.3238,VALID,126,VALID,0.533594,
2008-09-01, 01:50:04,VALID,1009.68,VALID,0,VALID,95.1847,VALID,0,VALID,23.3433,VALID,118,VALID,0.711719,
2008-09-01, 01:51:04,VALID,1009.68,VALID,0,VALID,95.177,VALID,0,VALID,23.322,VALID,148,VALID,0.619531,
2008-09-01, 01:52:04,VALID,1009.68,VALID,0,VALID,95.177,VALID,0,VALID,23.3043,VALID,153,VALID,0.297656,
2008-09-01, 01:53:04,VALID,1009.69,VALID,0,VALID,95.1923,VALID,0,VALID,23.3628,VALID,152,VALID,0.0480469,
2008-09-01, 01:54:04,VALID,1009.66,VALID,0,VALID,95.1694,VALID,0,VALID,23.3433,VALID,108,VALID,0.8,
2008-09-01, 01:55:04,VALID,1009.69,VALID,0,VALID,95.1465,VALID,0,VALID,23.3415,VALID,117,VALID,0.477344,
2008-09-01, 01:56:04,VALID,1009.68,VALID,0,VALID,95.1465,VALID,0,VALID,23.3433,VALID,121,VALID,0.267578,
2008-09-01, 01:57:04,VALID,1009.67,VALID,0,VALID,95.1389,VALID,0,VALID,23.3628,VALID,121,VALID,0.208984,
2008-09-01, 01:58:04,VALID,1009.66,VALID,0,VALID,95.1465,VALID,0,VALID,23.3823,VALID,121,VALID,0.0121094,
2008-09-01, 01:59:04,VALID,1009.61,VALID,0,VALID,95.1465,VALID,0,VALID,23.4212,VALID,121,VALID,0,
2008-09-01, 02:00:04,VALID,1009.63,VALID,0,VALID,95.116,VALID,0,VALID,23.4017,VALID,121,VALID,0,
2008-09-01, 02:01:04,VALID,1009.63,VALID,0,VALID,95.116,VALID,0,VALID,23.4017,VALID,120,VALID,0,
2008-09-01, 02:02:04,VALID,1009.62,VALID,0,VALID,95.0779,VALID,0,VALID,23.4017,VALID,115,VALID,0,
2008-09-01, 02:03:04,VALID,1009.6,VALID,0,VALID,95.055,VALID,0,VALID,23.4212,VALID,115,VALID,0,
2008-09-01, 02:04:04,VALID,1009.62,VALID,0,VALID,95.0626,VALID,0,VALID,23.361,VALID,115,VALID,0,
2008-09-01, 02:05:04,VALID,1009.58,VALID,0,VALID,95.0398,VALID,0,VALID,23.3628,VALID,115,VALID,0,
2008-09-01, 02:06:04,VALID,1009.59,VALID,0,VALID,95.0245,VALID,0,VALID,23.3628,VALID,115,VALID,0,
2008-09-01, 02:07:04,VALID,1009.57,VALID,0,VALID,95.0398,VALID,0,VALID,23.3433,VALID,115,VALID,0,
2008-09-01, 02:08:04,VALID,1009.57,VALID,0,VALID,95.0245,VALID,0,VALID,23.3026,VALID,115,VALID,0,
2008-09-01, 02:09:04,VALID,1009.56,VALID,0,VALID,95.0169,VALID,0,VALID,23.3043,VALID,66,VALID,0,
2008-09-01, 02:10:04,VALID,1009.56,VALID,0,VALID,95.0321,VALID,0,VALID,23.3043,VALID,66,VALID,0,
2008-09-01, 02:11:04,VALID,1009.55,VALID,0,VALID,95.055,VALID,0,VALID,23.2831,VALID,66,VALID,0,
2008-09-01, 02:12:04,VALID,1009.57,VALID,0,VALID,95.0626,VALID,0,VALID,23.3238,VALID,65,VALID,0,
2008-09-01, 02:13:04,VALID,1009.53,VALID,0,VALID,95.0855,VALID,0,VALID,23.3043,VALID,47,VALID,0,
2008-09-01, 02:14:04,VALID,1009.57,VALID,0,VALID,95.0626,VALID,0,VALID,23.3043,VALID,47,VALID,0,
2008-09-01, 02:15:04,VALID,1009.55,VALID,0,VALID,95.0626,VALID,0,VALID,23.2848,VALID,47,VALID,0,
2008-09-01, 02:16:04,VALID,1009.57,VALID,0,VALID,95.055,VALID,0,VALID,23.3043,VALID,47,VALID,0,
2008-09-01, 02:17:04,VALID,1009.56,VALID,0,VALID,95.0474,VALID,0,VALID,23.2654,VALID,47,VALID,0,
2008-09-01, 02:18:04,VALID,1009.58,VALID,0,VALID,95.055,VALID,0,VALID,23.2654,VALID,47,VALID,0.262891,
2008-09-01, 02:19:04,VALID,1009.58,VALID,0,VALID,95.055,VALID,0,VALID,23.3238,VALID,47,VALID,0.39375,
2008-09-01, 02:20:04,VALID,1009.62,VALID,0,VALID,95.055,VALID,0,VALID,23.2459,VALID,46,VALID,0.329297,
2008-09-01, 02:21:04,VALID,1009.62,VALID,0,VALID,95.0779,VALID,0,VALID,23.2459,VALID,46,VALID,0.330469,
2008-09-01, 02:22:04,VALID,1009.63,VALID,0,VALID,95.1008,VALID,0,VALID,23.2459,VALID,46,VALID,0.282813,
2008-09-01, 02:23:04,VALID,1009.67,VALID,0,VALID,95.0931,VALID,0,VALID,23.2459,VALID,26,VALID,0.459375,
2008-09-01, 02:24:04,VALID,1009.66,VALID,0,VALID,95.1313,VALID,0,VALID,23.2069,VALID,25,VALID,0.383984,
2008-09-01, 02:25:04,VALID,1009.66,VALID,0,VALID,95.116,VALID,0,VALID,23.2264,VALID,11,VALID,0.436328,
2008-09-01, 02:26:04,VALID,1009.62,VALID,0,VALID,95.1313,VALID,0,VALID,23.2264,VALID,12,VALID,0.5625,
2008-09-01, 02:27:04,VALID,1009.62,VALID,0,VALID,95.1389,VALID,0,VALID,23.2069,VALID,12,VALID,0.5125,
2008-09-01, 02:28:04,VALID,1009.64,VALID,0,VALID,95.1389,VALID,0,VALID,23.1874,VALID,20,VALID,0.379687,
2008-09-01, 02:29:04,VALID,1009.62,VALID,0,VALID,95.1465,VALID,0.105969,VALID,23.1467,VALID,20,VALID,0.373047,
2008-09-01, 02:30:04,VALID,1009.62,VALID,0,VALID,95.1542,VALID,0,VALID,23.1679,VALID,25,VALID,0.247266,
2008-09-01, 02:31:04,VALID,1009.59,VALID,0,VALID,95.1618,VALID,0,VALID,23.1679,VALID,25,VALID,0.180078,
2008-09-01, 02:32:04,VALID,1009.58,VALID,0,VALID,95.1694,VALID,0,VALID,23.1679,VALID,25,VALID,0,
2008-09-01, 02:33:04,VALID,1009.57,VALID,0,VALID,95.1923,VALID,0,VALID,23.1467,VALID,25,VALID,0.164063,
2008-09-01, 02:34:04,VALID,1009.58,VALID,0,VALID,95.2075,VALID,0.105969,VALID,23.1679,VALID,25,VALID,0.107422,
2008-09-01, 02:35:04,VALID,1009.58,VALID,0,VALID,95.2075,VALID,0,VALID,23.129,VALID,25,VALID,0.120312,
2008-09-01, 02:36:04,VALID,1009.57,VALID,0,VALID,95.2152,VALID,0,VALID,23.1485,VALID,25,VALID,0.0109375,
2008-09-01, 02:37:04,VALID,1009.56,VALID,0,VALID,95.2533,VALID,0,VALID,23.1485,VALID,25,VALID,0.250781,
2008-09-01, 02:38:04,VALID,1009.55,VALID,0,VALID,95.238,VALID,0,VALID,23.1485,VALID,2,VALID,0.423047,
2008-09-01, 02:39:04,VALID,1009.55,VALID,0,VALID,95.2609,VALID,0,VALID,23.1679,VALID,358,VALID,0.365625,
2008-09-01, 02:40:04,VALID,1009.52,VALID,0,VALID,95.2685,VALID,0,VALID,23.1679,VALID,358,VALID,0.348437,
2008-09-01, 02:41:04,VALID,1009.57,VALID,0,VALID,95.2685,VALID,0,VALID,23.129,VALID,358,VALID,0.215625,
2008-09-01, 02:42:04,VALID,1009.53,VALID,0,VALID,95.2838,VALID,0,VALID,23.1272,VALID,358,VALID,0.0046875,
2008-09-01, 02:43:04,VALID,1009.54,VALID,0,VALID,95.2838,VALID,0,VALID,23.1485,VALID,358,VALID,0.103125,
2008-09-01, 02:44:04,VALID,1009.5,VALID,0,VALID,95.3067,VALID,0,VALID,23.1485,VALID,358,VALID,0.0164062,
2008-09-01, 02:45:04,VALID,1009.55,VALID,0,VALID,95.2914,VALID,0,VALID,23.1485,VALID,358,VALID,0,
2008-09-01, 02:46:04,VALID,1009.53,VALID,0,VALID,95.3219,VALID,0,VALID,23.1485,VALID,358,VALID,0,
2008-09-01, 02:47:04,VALID,1009.53,VALID,0,VALID,95.299,VALID,0,VALID,23.129,VALID,358,VALID,0.241016,
2008-09-01, 02:48:04,VALID,1009.53,VALID,0,VALID,95.3143,VALID,0,VALID,23.1077,VALID,358,VALID,0.000390625,
2008-09-01, 02:49:04,VALID,1009.52,VALID,0,VALID,95.3448,VALID,0.105969,VALID,23.1679,VALID,358,VALID,0.135547,
2008-09-01, 02:50:04,VALID,1009.54,VALID,0,VALID,95.3219,VALID,0,VALID,23.1485,VALID,358,VALID,0,
2008-09-01, 02:51:04,VALID,1009.54,VALID,0,VALID,95.36,VALID,0,VALID,23.1485,VALID,358,VALID,0.221094,
2008-09-01, 02:52:04,VALID,1009.54,VALID,0,VALID,95.3524,VALID,0,VALID,23.1272,VALID,358,VALID,0,
2008-09-01, 02:53:04,VALID,1009.54,VALID,0,VALID,95.3448,VALID,0,VALID,23.1485,VALID,358,VALID,0.2625,
2008-09-01, 02:54:04,VALID,1009.54,VALID,0,VALID,95.3448,VALID,0,VALID,23.1095,VALID,358,VALID,0.075,
2008-09-01, 02:55:04,VALID,1009.56,VALID,0,VALID,95.3677,VALID,0,VALID,23.1485,VALID,358,VALID,0,
2008-09-01, 02:56:04,VALID,1009.54,VALID,0,VALID,95.3829,VALID,0,VALID,23.1485,VALID,358,VALID,0,
2008-09-01, 02:57:04,VALID,1009.52,VALID,0,VALID,95.3677,VALID,0,VALID,23.1467,VALID,358,VALID,0,
2008-09-01, 02:58:04,VALID,1009.51,VALID,0,VALID,95.3677,VALID,0,VALID,23.1679,VALID,13,VALID,0.35,
2008-09-01, 02:59:04,VALID,1009.53,VALID,0,VALID,95.3753,VALID,0,VALID,23.1874,VALID,13,VALID,0.107031,
2008-09-01, 03:00:04,VALID,1009.52,VALID,0,VALID,95.3753,VALID,0,VALID,23.1679,VALID,14,VALID,0,
2008-09-01, 03:01:04,VALID,1009.52,VALID,0,VALID,95.3982,VALID,0,VALID,23.1679,VALID,14,VALID,0,
2008-09-01, 03:02:04,VALID,1009.54,VALID,0,VALID,95.3905,VALID,0,VALID,23.129,VALID,14,VALID,0.0847656,
2008-09-01, 03:03:04,VALID,1009.55,VALID,0,VALID,95.3905,VALID,0,VALID,23.1485,VALID,14,VALID,0.140234,
2008-09-01, 03:04:04,VALID,1009.55,VALID,0,VALID,95.3677,VALID,0,VALID,23.1679,VALID,14,VALID,0.06875,
2008-09-01, 03:05:04,VALID,1009.55,VALID,0,VALID,95.3829,VALID,0,VALID,23.1679,VALID,14,VALID,0,
2008-09-01, 03:06:04,VALID,1009.53,VALID,0,VALID,95.3905,VALID,0,VALID,23.1679,VALID,14,VALID,0.237109,
2008-09-01, 03:07:04,VALID,1009.53,VALID,0,VALID,95.3982,VALID,0,VALID,23.1485,VALID,14,VALID,0.230078,
2008-09-01, 03:08:04,VALID,1009.52,VALID,0,VALID,95.4134,VALID,0,VALID,23.1467,VALID,14,VALID,0,
2008-09-01, 03:09:04,VALID,1009.5,VALID,0,VALID,95.4134,VALID,0,VALID,23.1679,VALID,14,VALID,0.122656,
2008-09-01, 03:10:04,VALID,1009.5,VALID,0,VALID,95.3982,VALID,0,VALID,23.1874,VALID,14,VALID,0,
2008-09-01, 03:11:04,VALID,1009.47,VALID,0,VALID,95.4134,VALID,0,VALID,23.1679,VALID,14,VALID,0,
2008-09-01, 03:12:04,VALID,1009.48,VALID,0,VALID,95.3905,VALID,0,VALID,23.1485,VALID,14,VALID,0,
2008-09-01, 03:13:04,VALID,1009.46,VALID,0,VALID,95.4058,VALID,0,VALID,23.1077,VALID,14,VALID,0,
2008-09-01, 03:14:04,VALID,1009.44,VALID,0,VALID,95.3982,VALID,0,VALID,23.1485,VALID,14,VALID,0.336719,
2008-09-01, 03:15:04,VALID,1009.45,VALID,0,VALID,95.3829,VALID,0,VALID,23.129,VALID,14,VALID,0.311719,
2008-09-01, 03:16:04,VALID,1009.45,VALID,0,VALID,95.3905,VALID,0,VALID,23.1485,VALID,26,VALID,0.307422,
2008-09-01, 03:17:04,VALID,1009.42,VALID,0,VALID,95.3829,VALID,0,VALID,23.1679,VALID,52,VALID,0.374609,
2008-09-01, 03:18:04,VALID,1009.42,VALID,0,VALID,95.3905,VALID,0,VALID,23.129,VALID,63,VALID,0.513281,
2008-09-01, 03:19:04,VALID,1009.42,VALID,0,VALID,95.3905,VALID,0,VALID,23.1485,VALID,59,VALID,0.385547,
2008-09-01, 03:20:04,VALID,1009.42,VALID,0,VALID,95.4058,VALID,0,VALID,23.129,VALID,59,VALID,0.405469,
2008-09-01, 03:21:04,VALID,1009.41,VALID,0,VALID,95.4058,VALID,0.105969,VALID,23.1485,VALID,59,VALID,0.309766,
2008-09-01, 03:22:04,VALID,1009.42,VALID,0,VALID,95.3905,VALID,0,VALID,23.0883,VALID,59,VALID,0.373047,
2008-09-01, 03:23:04,VALID,1009.42,VALID,0,VALID,95.3829,VALID,0,VALID,23.129,VALID,65,VALID,0.439063,
2008-09-01, 03:24:04,VALID,1009.41,VALID,0,VALID,95.3829,VALID,0,VALID,23.1095,VALID,58,VALID,0.292188,
2008-09-01, 03:25:04,VALID,1009.4,VALID,0,VALID,95.3982,VALID,0,VALID,23.129,VALID,59,VALID,0.2375,
2008-09-01, 03:26:04,VALID,1009.41,VALID,0,VALID,95.3982,VALID,0,VALID,23.09,VALID,59,VALID,0.119922,
2008-09-01, 03:27:04,VALID,1009.4,VALID,0,VALID,95.4134,VALID,0,VALID,23.1095,VALID,59,VALID,0,
2008-09-01, 03:28:04,VALID,1009.38,VALID,0,VALID,95.4058,VALID,0,VALID,23.1502,VALID,59,VALID,0.0046875,
2008-09-01, 03:29:04,VALID,1009.37,VALID,0,VALID,95.4211,VALID,0,VALID,23.1095,VALID,59,VALID,0.216016,
2008-09-01, 03:30:04,VALID,1009.36,VALID,0,VALID,95.4287,VALID,0,VALID,23.1095,VALID,64,VALID,0.479688,
2008-09-01, 03:31:04,VALID,1009.38,VALID,0,VALID,95.4058,VALID,0,VALID,23.1095,VALID,64,VALID,0.242969,
2008-09-01, 03:32:04,VALID,1009.38,VALID,0,VALID,95.4211,VALID,0,VALID,23.09,VALID,65,VALID,0.0984375,
2008-09-01, 03:33:04,VALID,1009.43,VALID,0,VALID,95.4211,VALID,0,VALID,23.1485,VALID,71,VALID,0.536328,
2008-09-01, 03:34:04,VALID,1009.42,VALID,0,VALID,95.4211,VALID,0,VALID,23.1095,VALID,88,VALID,0.473047,
2008-09-01, 03:35:04,VALID,1009.42,VALID,0,VALID,95.4287,VALID,0,VALID,23.129,VALID,64,VALID,0.78125,
2008-09-01, 03:36:04,VALID,1009.4,VALID,0,VALID,95.4211,VALID,0,VALID,23.1095,VALID,55,VALID,0.307813,
2008-09-01, 03:37:04,VALID,1009.41,VALID,0,VALID,95.4287,VALID,0,VALID,23.1095,VALID,15,VALID,0.303125,
2008-09-01, 03:38:04,VALID,1009.38,VALID,0,VALID,95.4287,VALID,0,VALID,23.1095,VALID,15,VALID,0.123828,
2008-09-01, 03:39:04,VALID,1009.43,VALID,0,VALID,95.4516,VALID,0,VALID,23.129,VALID,15,VALID,0.317969,
2008-09-01, 03:40:04,VALID,1009.41,VALID,0,VALID,95.4363,VALID,0,VALID,23.1485,VALID,15,VALID,0.0410156,
2008-09-01, 03:41:04,VALID,1009.45,VALID,0,VALID,95.4287,VALID,0,VALID,23.129,VALID,53,VALID,0.485938,
2008-09-01, 03:42:04,VALID,1009.46,VALID,0,VALID,95.4516,VALID,0,VALID,23.1095,VALID,67,VALID,0.626172,
2008-09-01, 03:43:04,VALID,1009.48,VALID,0,VALID,95.4516,VALID,0,VALID,23.129,VALID,68,VALID,0.502734,
2008-09-01, 03:44:04,VALID,1009.48,VALID,0,VALID,95.4516,VALID,0,VALID,23.1485,VALID,73,VALID,0.726563,
2008-09-01, 03:45:04,VALID,1009.49,VALID,0,VALID,95.4744,VALID,0,VALID,23.129,VALID,83,VALID,0.794922,
2008-09-01, 03:46:04,VALID,1009.48,VALID,0,VALID,95.4592,VALID,0,VALID,23.129,VALID,82,VALID,0.636719,
2008-09-01, 03:47:04,VALID,1009.5,VALID,0,VALID,95.4592,VALID,0,VALID,23.1095,VALID,63,VALID,0.762891,
2008-09-01, 03:48:04,VALID,1009.48,VALID,0,VALID,95.4363,VALID,0,VALID,23.129,VALID,17,VALID,0.410547,